{"data":{"norad_id":53250,"intl_designator":"2022-086J","name":"STARLINK-4059","alt_names":[],"object_type":"PAYLOAD","status":"ACTIVE","operator":null,"country":"US","launch_date":"2022-07-24","launch_site_code":"AFETR","launch_vehicle":null,"mission":null,"orbit_class":"UNKNOWN","rcs_meters":null,"size_class":null,"mass_kg":null,"dimensions":null,"purposes":["comms"],"wikipedia_slug":null,"has_3d_model":false,"image_url":null,"decayed_at":null,"tle_current":{"epoch":"2026-05-25T03:42:15.864192Z","epoch_age_seconds":58400,"freshness":"FRESH","line1":"1 53250U 22086J   26145.15435028  .00000269  00000+0  35000-4 0  9997","line2":"2 53250  53.2126 210.8581 0001121  97.8399 262.2721 15.08836033212612","mean_motion":15.08836033,"eccentricity":0.0001121,"inclination_deg":53.2126,"raan_deg":210.8581,"arg_perigee_deg":97.8399,"mean_anomaly_deg":262.2721,"bstar":3.5e-5,"rev_number":21261,"period_min":95.437805600179,"perigee_km":538.98001877177,"apogee_km":540.53101027353,"semimajor_km":6917.8925145226,"source":"CELESTRAK","updated_at":"2026-05-25T13:38:17.361447Z"}}}